[[{"header":{"parameterUnit":"m.s-1","parameterCategory":1,"la1":30.2991,"la2":30.254,"lo1":-89.0895,"lo2":-89.0444,"dx":0.0017,"dy":0.0017,"nx":28,"ny":28,"refTime":"2022-11-30T15:00:00:Z","depth":0,"parameterNumber":2,"parameterNumberName":"U-component_of_WINDS"},"data":[0,0,0,0,0,0,0,0,0,0,0,0,0,0,0,0,0,0,0,0,0,0,0,0,0,0,0,0,0,0,0,0,0,0,0,0,0,0,0,0,0,0,0,0,0,0,0,0,0,0,0,0,0,0,0,0,0,0,0.5203,0.5204,0,0.5245,0.5245,0.5246,0.5275,0.5275,0.5275,0.5276,0.5316,0.5317,0.5318,0,0,0,0,0,0,0,0,0,0,0,0,0,0.5148,0.5149,0.5203,0.5204,0.5204,0.5245,0.5245,0.5246,0.5275,0.5275,0.5275,0.5276,0.5316,0.5317,0.5318,0,0,0,0,0,0,0,0,0,0,0,0,0,0.5179,0.515,0.5203,0.5224,0.5226,0.5245,0.5245,0.5246,0.5275,0.5275,0.5276,0.5276,0.5316,0.5317,0.5318,0.5319,0,0,0.5322,0.5323,0,0,0,0,0,0,0,0,0.5177,0.5181,0.522,0.5222,0.5225,0.5255,0.5241,0.527,0.5275,0.5256,0.5276,0.5276,0.5296,0.5298,0.5305,0.5321,0.5323,0.5322,0.5323,0.5324,0.5324,0,0,0,0,0,0,0,0.5175,0.518,0.522,0.5221,0.5224,0.5231,0.5235,0.5247,0.5273,0.5258,0.526,0.5265,0.5297,0.5304,0.5307,0.5323,0.5322,0.5323,0.5324,0.5325,0.5344,0.5343,0,0,0,0,0,0,0.517,0.5178,0.5218,0.5221,0.5202,0.5231,0.5237,0.5245,0.5273,0.5278,0.5264,0.5266,0.5302,0.5305,0.5308,0.5312,0.5324,0.5325,0.5326,0.5344,0.5344,0.5343,0,0,0,0,0,0,0.5169,0.5173,0.5217,0.52,0.5206,0.5232,0.5241,0.5246,0.5253,0.5278,0.5283,0.5267,0.5302,0.5306,0.5317,0.5314,0.5325,0.5327,0.5344,0.5344,0.5344,0.5319,0,0,0,0,0,0,0.5167,0.5173,0.5173,0.52,0.5207,0.5224,0.5241,0.5246,0.5255,0.5258,0.5282,0.5286,0.5303,0.5315,0.5318,0.5316,0.5328,0.5345,0.5344,0.5344,0.532,0.5318,0.5316,0,0,0,0,0,0.5165,0.5164,0.5173,0.5178,0.5208,0.5224,0.5228,0.5248,0.5255,0.5256,0.5272,0.5285,0.5314,0.5315,0.532,0.5318,0.5345,0.5344,0.5344,0.5321,0.5319,0.5316,0,0,0,0,0,0,0.5136,0.5168,0.5178,0.5186,0.5202,0.5229,0.5231,0.5244,0.5258,0.5259,0.5283,0.5288,0.5296,0.5308,0.5309,0.5321,0.5331,0.5331,0.5313,0.531,0.5308,0.5305,0.5329,0,0,0,0,0,0.513,0.5141,0.5169,0.5173,0.518,0.5204,0.5212,0.5226,0.5243,0.525,0.5267,0.5283,0.5296,0.5304,0.5317,0.5323,0.5329,0.5324,0.5321,0.532,0.5319,0.5324,0.5323,0.5341,0.5341,0.5341,0,0,0.5119,0.5138,0.5143,0.5167,0.5182,0.5192,0.521,0.522,0.5228,0.5251,0.5263,0.5276,0.5296,0.5304,0.5309,0.5314,0.5316,0.5319,0.5317,0.5318,0.5323,0.5322,0.532,0.5341,0.5341,0.5341,0,0,0.5103,0.5119,0.5124,0.5139,0.5161,0.5177,0.5178,0.5204,0.5214,0.5226,0.5244,0.5254,0.5275,0.5289,0.5299,0.5291,0.5303,0.5294,0.5283,0.5287,0.5286,0.5285,0.5282,0.5281,0.5294,0.5294,0.5294,0,0.5086,0.5103,0.5125,0.5135,0.5146,0.5169,0.5175,0.5188,0.5212,0.5219,0.5225,0.5254,0.5268,0.5281,0.5279,0.5286,0.5289,0.5291,0.5284,0.5283,0.5282,0.5281,0.528,0.5293,0.5293,0.5293,0.5293,0,0.5081,0.5093,0.5095,0.5119,0.513,0.5138,0.5161,0.517,0.5183,0.5199,0.5211,0.523,0.5248,0.5252,0.5265,0.5267,0.527,0.528,0.529,0.5279,0.5278,0.5277,0.5291,0.5291,0.5292,0.5292,0,0,0.5046,0.5085,0.5085,0.5097,0.5124,0.5133,0.5143,0.5161,0.5168,0.5185,0.5193,0.5212,0.5222,0.5233,0.5248,0.5252,0.5245,0.5262,0.5263,0.5258,0.525,0.5242,0.5241,0.5255,0.5254,0.5254,0.5248,0,0.5035,0.5053,0.5075,0.5086,0.5097,0.5121,0.5129,0.5146,0.5161,0.5173,0.519,0.5203,0.5215,0.5222,0.5228,0.5245,0.5244,0.5246,0.5263,0.5263,0.5257,0.524,0.5231,0.5224,0.5248,0.5248,0.5248,0,0.5024,0.5041,0.5053,0.5081,0.5086,0.5093,0.5113,0.5124,0.5145,0.5156,0.5169,0.5185,0.5197,0.5206,0.5223,0.5224,0.5232,0.5242,0.5242,0.5244,0.5254,0.5241,0.5222,0.5221,0.5247,0.5247,0.5247,0,0.4998,0.5024,0.5035,0.5044,0.5076,0.5081,0.5094,0.5116,0.5126,0.5143,0.515,0.5168,0.5178,0.5191,0.5212,0.5217,0.5227,0.5238,0.5236,0.5235,0.5236,0.5236,0.5218,0.5242,0.5242,0.5242,0.5242,0,0.4983,0.4989,0.5024,0.503,0.5039,0.5064,0.5072,0.5087,0.5106,0.5117,0.5138,0.5147,0.5174,0.5187,0.5204,0.5215,0.5219,0.5228,0.5233,0.5226,0.5225,0.5232,0.5233,0.5242,0.5242,0.5242,0.5242,0,0.4954,0.4978,0.4991,0.5021,0.5029,0.5034,0.506,0.5068,0.5085,0.5098,0.5102,0.5129,0.5146,0.5168,0.5191,0.5202,0.5211,0.5218,0.5205,0.5207,0.5204,0.5204,0.519,0.519,0.5213,0.5213,0.5213,0,0.4943,0.4949,0.498,0.4989,0.5002,0.5016,0.5027,0.5052,0.5063,0.5088,0.5093,0.5111,0.5127,0.5152,0.5173,0.5191,0.5199,0.5193,0.5201,0.5195,0.5199,0.5198,0.5199,0.519,0.519,0.519,0.5189,0,0.492,0.4932,0.4947,0.4967,0.498,0.4997,0.5015,0.5021,0.505,0.5061,0.5079,0.5091,0.5115,0.5133,0.5154,0.5168,0.5184,0.5187,0.5187,0.5181,0.5173,0.5177,0.5199,0.5187,0.5187,0.5187,0.5187,0.5187,0.49,0.4907,0.493,0.4947,0.4964,0.498,0.499,0.5009,0.5024,0.5046,0.506,0.5077,0.51,0.513,0.5143,0.5157,0.5163,0.5164,0.5164,0.5164,0.5162,0.5171,0.5161,0.5161,0.5161,0.5161,0.5162,0,0.4878,0.4895,0.4911,0.4936,0.4949,0.4964,0.4985,0.4995,0.501,0.503,0.5046,0.5066,0.5084,0.5108,0.5128,0.5135,0.5142,0.5139,0.5138,0.5142,0.5155,0.5153,0.5133,0.5133,0.5133,0.5133,0.5133,0.5133,0.4869,0.4882,0.4897,0.4918,0.4935,0.4952,0.4963,0.4979,0.4995,0.5017,0.5033,0.5049,0.5071,0.5093,0.511,0.5117,0.5123,0.5117,0.5126,0.5138,0.5141,0.5143,0.5141,0.5119,0.5119,0.5112,0.5112,0.5112]},{"header":{"parameterUnit":"m.s-1","parameterCategory":1,"la1":30.2991,"la2":30.254,"lo1":-89.0895,"lo2":-89.0444,"dx":0.0017,"dy":0.0017,"nx":28,"ny":28,"refTime":"2022-11-30T15:00:00:Z","depth":0,"parameterNumber":3,"parameterNumberName":"V-component_of_WINDS"},"data":[0,0,0,0,0,0,0,0,0,0,0,0,0,0,0,0,0,0,0,0,0,0,0,0,0,0,0,0,0,0,0,0,0,0,0,0,0,0,0,0,0,0,0,0,0,0,0,0,0,0,0,0,0,0,0,0,0,0,-7.8014,-7.8015,0,-7.8092,-7.8093,-7.8094,-7.8045,-7.8042,-7.804,-7.8038,-7.8111,-7.8115,-7.8119,0,0,0,0,0,0,0,0,0,0,0,0,0,-7.7819,-7.7823,-7.8014,-7.8015,-7.8016,-7.8092,-7.8093,-7.8094,-7.8045,-7.8042,-7.804,-7.8037,-7.811,-7.8115,-7.812,0,0,0,0,0,0,0,0,0,0,0,0,0,-7.7901,-7.7825,-7.8014,-7.8001,-7.8001,-7.8092,-7.8093,-7.8094,-7.8046,-7.8042,-7.8039,-7.8036,-7.8108,-7.8114,-7.812,-7.8227,0,0,-7.8139,-7.8142,0,0,0,0,0,0,0,0,-7.7897,-7.7908,-7.8002,-7.8002,-7.8002,-7.8055,-7.8051,-7.8138,-7.8047,-7.8028,-7.8038,-7.8034,-7.8095,-7.8102,-7.8124,-7.823,-7.8233,-7.814,-7.8143,-7.8146,-7.8148,0,0,0,0,0,0,0,-7.7891,-7.7905,-7.8045,-7.8004,-7.8004,-7.799,-7.7998,-7.8067,-7.808,-7.803,-7.8026,-7.8037,-7.8094,-7.8118,-7.8125,-7.8234,-7.814,-7.8145,-7.8149,-7.8151,-7.8433,-7.8437,0,0,0,0,0,0,-7.7887,-7.79,-7.8042,-7.8047,-7.794,-7.7996,-7.8005,-7.8042,-7.8079,-7.8081,-7.8039,-7.8034,-7.8109,-7.8118,-7.8128,-7.8256,-7.8146,-7.8152,-7.8155,-7.8429,-7.8434,-7.8438,0,0,0,0,0,0,-7.7883,-7.79,-7.8039,-7.7973,-7.799,-7.8003,-7.8045,-7.8045,-7.8069,-7.8086,-7.8088,-7.8062,-7.8107,-7.8119,-7.8203,-7.8258,-7.8154,-7.816,-7.8425,-7.8431,-7.8436,-7.8512,0,0,0,0,0,0,-7.7878,-7.7899,-7.794,-7.7974,-7.7994,-7.8115,-7.8048,-7.8049,-7.808,-7.8074,-7.8108,-7.811,-7.8105,-7.8194,-7.8209,-7.8264,-7.8165,-7.842,-7.8427,-7.8434,-7.8505,-7.852,-7.8532,0,0,0,0,0,-7.7871,-7.7957,-7.7943,-7.796,-7.8046,-7.8118,-7.8129,-7.8124,-7.8085,-7.8126,-7.8138,-7.8109,-7.8249,-7.8203,-7.822,-7.8277,-7.8416,-7.8425,-7.8434,-7.8498,-7.8517,-7.8532,0,0,0,0,0,0,-7.7926,-7.7961,-7.7946,-7.8046,-7.808,-7.811,-7.8162,-7.8143,-7.8187,-7.8179,-7.8168,-7.8176,-7.8265,-7.8279,-7.8227,-7.8383,-7.8327,-7.8339,-7.837,-7.8388,-7.8401,-7.8396,-7.817,0,0,0,0,0,-7.7951,-7.8008,-7.8035,-7.812,-7.8139,-7.8148,-7.8179,-7.8172,-7.8206,-7.8219,-7.8237,-7.827,-7.8321,-7.8355,-7.8403,-7.8507,-7.8513,-7.8554,-7.8568,-7.8579,-7.859,-7.8647,-7.8666,-7.8466,-7.8466,-7.8466,0,0,-7.8,-7.8027,-7.8063,-7.8132,-7.8158,-7.8217,-7.816,-7.8224,-7.8267,-7.8228,-7.831,-7.8324,-7.836,-7.8455,-7.8497,-7.8469,-7.8647,-7.859,-7.8599,-7.8604,-7.8658,-7.8677,-7.8693,-7.8472,-7.8471,-7.847,0,0,-7.8121,-7.8147,-7.8222,-7.825,-7.8291,-7.8297,-7.8315,-7.8349,-7.8358,-7.844,-7.8412,-7.8463,-7.8552,-7.8579,-7.8604,-7.8739,-7.8714,-7.8754,-7.8827,-7.8882,-7.8898,-7.8912,-7.8961,-7.8978,-7.8765,-7.8765,-7.8765,0,-7.8178,-7.8267,-7.8263,-7.833,-7.8362,-7.8332,-7.8408,-7.8434,-7.8488,-7.8509,-7.8478,-7.8591,-7.8612,-7.8714,-7.8747,-7.8768,-7.8788,-7.875,-7.8897,-7.891,-7.8923,-7.897,-7.8988,-7.877,-7.8769,-7.8769,-7.8768,0,-7.8335,-7.8398,-7.8453,-7.8509,-7.8546,-7.8617,-7.8623,-7.8661,-7.8652,-7.8661,-7.8745,-7.877,-7.8824,-7.8848,-7.8838,-7.8948,-7.893,-7.8898,-7.8841,-7.8947,-7.8991,-7.9008,-7.8777,-7.8775,-7.8774,-7.8772,0,0,-7.8491,-7.8546,-7.8567,-7.8593,-7.8636,-7.8684,-7.8754,-7.8809,-7.8843,-7.8881,-7.8939,-7.9016,-7.8987,-7.9016,-7.9009,-7.9058,-7.9165,-7.902,-7.9021,-7.9047,-7.9289,-7.9313,-7.9334,-7.9149,-7.9152,-7.9155,-7.9286,0,-7.8616,-7.8741,-7.874,-7.8854,-7.8913,-7.8887,-7.8948,-7.898,-7.8991,-7.9041,-7.9051,-7.9107,-7.9064,-7.9082,-7.9129,-7.9142,-7.9213,-7.9132,-7.9202,-7.9205,-7.9195,-7.9356,-7.9382,-7.9504,-7.9303,-7.9306,-7.9308,0,-7.8777,-7.8825,-7.8946,-7.8984,-7.9008,-7.9063,-7.9115,-7.9163,-7.92,-7.9204,-7.9238,-7.9224,-7.9294,-7.9236,-7.9333,-7.9278,-7.9306,-7.9317,-7.9322,-7.9328,-7.9263,-7.9367,-7.9543,-7.9562,-7.9334,-7.9332,-7.933,0,-7.8881,-7.8974,-7.906,-7.9082,-7.9128,-7.9168,-7.9188,-7.9222,-7.9256,-7.93,-7.9322,-7.9373,-7.9401,-7.9441,-7.9441,-7.9398,-7.9539,-7.948,-7.9543,-7.9544,-7.9574,-7.9572,-7.9757,-7.9592,-7.9592,-7.9591,-7.9591,0,-7.902,-7.9095,-7.9107,-7.916,-7.9244,-7.9242,-7.9324,-7.934,-7.9371,-7.9426,-7.9405,-7.9456,-7.9453,-7.9505,-7.9505,-7.9585,-7.9598,-7.9602,-7.9602,-7.9605,-7.9604,-7.9623,-7.9615,-7.9596,-7.9595,-7.9594,-7.9593,0,-7.9149,-7.916,-7.9252,-7.9289,-7.93,-7.936,-7.9391,-7.9441,-7.9451,-7.952,-7.9536,-7.955,-7.961,-7.9615,-7.9682,-7.9683,-7.9781,-7.977,-7.9769,-7.9767,-7.9831,-7.9825,-8.0035,-8.0062,-7.9879,-7.9881,-7.9882,0,-7.9237,-7.9296,-7.934,-7.9377,-7.9401,-7.9459,-7.9495,-7.9495,-7.9532,-7.958,-7.9624,-7.9683,-7.973,-7.9826,-7.9842,-7.9894,-7.9885,-7.9955,-7.9892,-7.9894,-7.9887,-7.9883,-7.9889,-7.9967,-7.9969,-7.997,-7.9972,0,-7.9393,-7.9397,-7.945,-7.9507,-7.9551,-7.9594,-7.9634,-7.9665,-7.967,-7.9713,-7.9776,-7.9812,-7.9884,-7.9942,-7.9994,-8.0013,-7.9994,-7.9992,-8.0009,-8.0013,-8.001,-8.0013,-7.9803,-7.9987,-7.9985,-7.9984,-7.9983,-7.9983,-7.9505,-7.9557,-7.9597,-7.9658,-7.9689,-7.9728,-7.9777,-7.9795,-7.9848,-7.9908,-7.9904,-7.9974,-8.001,-8.0078,-8.0102,-8.0155,-8.0131,-8.0156,-8.0162,-8.0169,-8.0176,-8.0002,-8.0164,-8.0163,-8.0163,-8.0163,-8.0162,0,-7.9661,-7.9686,-7.9742,-7.9802,-7.985,-7.983,-7.9874,-7.9915,-7.9977,-8.0014,-8.0062,-8.0134,-8.0191,-8.0213,-8.0268,-8.0307,-8.0299,-8.0321,-8.0318,-8.0323,-8.0194,-8.0174,-8.0327,-8.0326,-8.0326,-8.0326,-8.0326,-8.0326,-7.9747,-7.9834,-7.9842,-7.9944,-7.9968,-8.0039,-8.0066,-8.0102,-8.0131,-8.0214,-8.0263,-8.0277,-8.0308,-8.0366,-8.0417,-8.0422,-8.0443,-8.0469,-8.047,-8.0349,-8.0332,-8.0316,-8.0297,-8.0474,-8.0474,-8.0595,-8.0596,-8.0597]}]]